Weather History for PASD - December, 2012

Change the Weather History Date:

Tuesday, December 25, 2012

  Actual Average Record
Temperature  
Mean Temperature 32 °F -  
Max Temperature 37 °F 33 °F 44 °F (1990)
Min Temperature 26 °F 27 °F 15 °F (2010)
Degree Days  
Heating Degree Days 34    
Moisture  
Dew Point 32 °F    
Average Humidity 95    
Maximum Humidity 100    
Minimum Humidity 80    
Precipitation  
Precipitation 0.00 in - - ()
Sea Level Pressure  
Sea Level Pressure 29.28 in    
Wind  
Wind Speed 7 mph (NE)    
Max Wind Speed 16 mph    
Max Gust Speed 26 mph    
Visibility 7 miles    
Events      
Averages and records for this station are not official NWS values.
T = Trace of Precipitation, MM = Missing Value Source: NWS Daily Summary

Daily Weather History Graph

Daily Weather History Graph

Search for Another Location

Airport or City:

Trip Planner

Search our weather history database for the weather conditions in past years. The results will help you decide how hot, cold, wet, or windy it might be!

Date:

Astronomy

Dec. 25, 2012 Rise Set
Actual Time 10:08 AM AKST 5:16 PM AKST
Civil Twilight 9:22 AM AKST 6:02 PM AKST
Nautical Twilight 8:34 AM AKST 6:50 PM AKST
Astronomical Twilight 7:49 AM AKST 7:35 PM AKST
Moon 3:40 PM AKST (12/25) 7:43 AM AKST (12/25)
Length of Visible Light 8h 39m
Length of Day
7h 07m
Waxing Gibbous, 94% of the Moon is Illuminated
Dec 25
Waxing Gibbous
Dec 28
Full
Jan 4
Last Quarter
Jan 11
New
Jan 18
First Quarter

Hourly Weather History & Observations

Time (AKST) Temp. Windchill Dew Point Humidity Pressure Visibility Wind Dir Wind Speed Gust Speed Precip Events Conditions
12:16 AM 26.6 °F 21.2 °F 21.2 °F 80% 29.40 in 10.0 mi NE 4.6 mph - N/A   Overcast
12:36 AM 26.6 °F 20.0 °F 23.0 °F 86% 29.39 in 10.0 mi NE 5.8 mph - N/A   Overcast
12:56 AM 26.6 °F 21.2 °F 23.0 °F 86% 29.39 in 10.0 mi NE 4.6 mph - N/A   Overcast
1:16 AM 26.6 °F 21.2 °F 24.8 °F 93% 29.39 in 10.0 mi NNE 4.6 mph - N/A   Overcast
1:36 AM 28.4 °F - 24.8 °F 86% 29.39 in 10.0 mi Calm Calm - N/A   Overcast
1:56 AM 28.4 °F 22.2 °F 24.8 °F 86% 29.39 in 10.0 mi NNE 5.8 mph - N/A   Overcast
2:16 AM 28.4 °F 22.2 °F 26.6 °F 93% 29.38 in 9.0 mi NE 5.8 mph - N/A   Overcast
2:36 AM 28.4 °F 21.2 °F 26.6 °F 93% 29.39 in 8.0 mi NNE 6.9 mph - N/A   Overcast
3:16 AM 30.2 °F 22.6 °F 28.4 °F 93% 29.38 in 10.0 mi NNE 8.1 mph - N/A   Overcast
3:36 AM 28.4 °F 19.7 °F 28.4 °F 100% 29.37 in 5.0 mi NNE 9.2 mph - N/A   Overcast
3:56 AM 28.4 °F 19.7 °F 28.4 °F 100% 29.38 in 5.0 mi NNE 9.2 mph - N/A   Overcast
4:16 AM 28.4 °F 20.4 °F 28.4 °F 100% 29.38 in 7.0 mi NNE 8.1 mph - N/A   Overcast
4:36 AM 28.4 °F 19.1 °F 28.4 °F 100% 29.38 in 7.0 mi NNE 10.4 mph - N/A   Overcast
4:56 AM 28.4 °F 18.5 °F 28.4 °F 100% 29.37 in 5.0 mi NNE 11.5 mph 17.3 mph N/A   Overcast
5:16 AM 28.4 °F 19.1 °F 28.4 °F 100% 29.36 in 5.0 mi NNE 10.4 mph 16.1 mph N/A   Overcast
5:36 AM 28.4 °F 19.7 °F 28.4 °F 100% 29.35 in 5.0 mi NE 9.2 mph 18.4 mph N/A   Overcast
5:56 AM 30.2 °F 22.6 °F 30.2 °F 100% 29.35 in 4.0 mi NE 8.1 mph - N/A   Overcast
6:16 AM 30.2 °F 22.6 °F 30.2 °F 100% 29.35 in 4.0 mi NNE 8.1 mph - N/A   Overcast
6:36 AM 30.2 °F 21.3 °F 30.2 °F 100% 29.36 in 3.0 mi NE 10.4 mph - N/A   Overcast
6:56 AM 30.2 °F 21.3 °F 30.2 °F 100% 29.36 in 5.0 mi NNE 10.4 mph - N/A   Overcast
7:16 AM 30.2 °F 21.3 °F 28.4 °F 93% 29.35 in 5.0 mi NE 10.4 mph - N/A   Overcast
7:36 AM 30.2 °F 21.3 °F 30.2 °F 100% 29.36 in 2.5 mi NE 10.4 mph 17.3 mph N/A   Overcast
7:56 AM 30.2 °F 22.6 °F 30.2 °F 100% 29.36 in 3.0 mi NNE 8.1 mph 16.1 mph N/A   Overcast
8:16 AM 32.0 °F 25.6 °F 32.0 °F 100% 29.35 in 3.0 mi NE 6.9 mph - N/A   Overcast
8:36 AM 33.8 °F 29.6 °F 32.0 °F 93% 29.35 in 3.0 mi NE 4.6 mph - N/A   Overcast
8:56 AM 33.8 °F 28.6 °F 32.0 °F 93% 29.36 in 2.5 mi NE 5.8 mph - N/A   Overcast
9:16 AM 33.8 °F 29.6 °F 32.0 °F 93% 29.37 in 2.5 mi NNE 4.6 mph - N/A   Overcast
9:36 AM 33.8 °F 27.7 °F 33.8 °F 100% 29.36 in 2.5 mi NE 6.9 mph - N/A   Overcast
9:56 AM 33.8 °F 27.7 °F 33.8 °F 100% 29.36 in 2.5 mi NE 6.9 mph - N/A   Overcast
10:16 AM 33.8 °F 29.6 °F 33.8 °F 100% 29.37 in 2.5 mi NE 4.6 mph - N/A   Overcast
10:36 AM 33.8 °F 28.6 °F 33.8 °F 100% 29.36 in 2.5 mi ENE 5.8 mph - N/A   Overcast
10:56 AM 33.8 °F 27.7 °F 32.0 °F 93% 29.36 in 8.0 mi ENE 6.9 mph - N/A   Overcast
11:16 AM 33.8 °F 30.8 °F 32.0 °F 93% 29.37 in 3.0 mi NNE 3.5 mph - N/A   Overcast
11:36 AM 35.6 °F 30.7 °F 33.8 °F 93% 29.37 in 5.0 mi ENE 5.8 mph - N/A   Overcast
11:56 AM 35.6 °F 32.8 °F 33.8 °F 93% 29.37 in 4.0 mi ENE 3.5 mph - N/A   Overcast
12:16 PM 35.6 °F - 33.8 °F 93% 29.35 in 3.0 mi Calm Calm - N/A   Overcast
12:36 PM 35.6 °F - 33.8 °F 93% 29.34 in 7.0 mi Calm Calm - N/A   Overcast
12:56 PM 35.6 °F 32.8 °F 33.8 °F 93% 29.35 in 9.0 mi ENE 3.5 mph - N/A   Mostly Cloudy
1:16 PM 35.6 °F 31.7 °F 33.8 °F 93% 29.34 in 9.0 mi NE 4.6 mph - N/A   Mostly Cloudy
1:36 PM 35.6 °F - 33.8 °F 93% 29.32 in 9.0 mi Calm Calm - N/A   Mostly Cloudy
1:56 PM 35.6 °F 29.9 °F 33.8 °F 93% 29.31 in 10.0 mi East 6.9 mph - N/A   Mostly Cloudy
2:16 PM 35.6 °F 32.8 °F 33.8 °F 93% 29.32 in 10.0 mi ESE 3.5 mph - N/A   Mostly Cloudy
2:36 PM 35.6 °F 32.8 °F 33.8 °F 93% 29.31 in 10.0 mi East 3.5 mph - N/A   Overcast
2:56 PM 35.6 °F 29.2 °F 33.8 °F 93% 29.29 in 10.0 mi East 8.1 mph - N/A   Mostly Cloudy
3:16 PM 37.4 °F 31.4 °F 32.0 °F 81% 29.29 in 10.0 mi ENE 8.1 mph - N/A   Mostly Cloudy
3:36 PM 37.4 °F 32.8 °F 32.0 °F 81% 29.29 in 10.0 mi ENE 5.8 mph - N/A   Mostly Cloudy
3:56 PM 35.6 °F 30.7 °F 33.8 °F 93% 29.27 in 5.0 mi East 5.8 mph - N/A   Overcast
4:16 PM 35.6 °F 28.6 °F 33.8 °F 93% 29.26 in 5.0 mi ENE 9.2 mph - N/A   Overcast
4:36 PM 35.6 °F 28.6 °F 33.8 °F 93% 29.25 in 3.0 mi NE 9.2 mph - N/A   Overcast
4:56 PM 35.6 °F 28.6 °F 33.8 °F 93% 29.24 in 6.0 mi NE 9.2 mph 16.1 mph N/A   Overcast
5:16 PM 35.6 °F 29.9 °F 33.8 °F 93% 29.23 in 6.0 mi NE 6.9 mph 21.9 mph N/A   Overcast
5:36 PM 35.6 °F 28.0 °F 33.8 °F 93% 29.22 in 6.0 mi NE 10.4 mph 17.3 mph N/A   Overcast
5:56 PM 35.6 °F 29.2 °F 33.8 °F 93% 29.21 in 6.0 mi NE 8.1 mph 17.3 mph N/A   Overcast
6:16 PM 35.6 °F 28.6 °F 33.8 °F 93% 29.21 in 6.0 mi NE 9.2 mph 19.6 mph N/A   Overcast
6:36 PM 35.6 °F 29.2 °F 33.8 °F 93% 29.20 in 6.0 mi NE 8.1 mph 16.1 mph N/A   Overcast
6:56 PM 35.6 °F 29.9 °F 35.6 °F 100% 29.18 in 6.0 mi NE 6.9 mph 19.6 mph N/A   Overcast
7:16 PM 35.6 °F 28.0 °F 35.6 °F 100% 29.17 in 6.0 mi NE 10.4 mph 20.7 mph N/A   Overcast
7:36 PM 35.6 °F 29.2 °F 35.6 °F 100% 29.17 in 6.0 mi NE 8.1 mph 18.4 mph N/A   Overcast
7:56 PM 37.4 °F 32.1 °F 35.6 °F 93% 29.15 in 6.0 mi NE 6.9 mph - N/A   Overcast
8:16 PM 37.4 °F 29.3 °F 35.6 °F 93% 29.13 in 10.0 mi NE 12.7 mph 20.7 mph N/A   Overcast
8:36 PM 37.4 °F 30.8 °F 35.6 °F 93% 29.12 in 10.0 mi NE 9.2 mph 18.4 mph N/A   Overcast
8:56 PM 37.4 °F 30.8 °F 35.6 °F 93% 29.11 in 10.0 mi NE 9.2 mph 21.9 mph N/A   Overcast
9:16 PM 37.4 °F 31.4 °F 35.6 °F 93% 29.09 in 10.0 mi NE 8.1 mph 21.9 mph N/A   Overcast
9:36 PM 37.4 °F 30.8 °F 35.6 °F 93% 29.07 in 10.0 mi ENE 9.2 mph 21.9 mph N/A   Overcast
9:56 PM 37.4 °F 30.3 °F 35.6 °F 93% 29.06 in 9.0 mi NE 10.4 mph 20.7 mph N/A   Overcast
10:16 PM 35.6 °F 27.5 °F 35.6 °F 100% 29.05 in 10.0 mi ENE 11.5 mph 20.7 mph N/A   Overcast
10:36 PM 35.6 °F 26.2 °F 35.6 °F 100% 29.03 in 9.0 mi NNE 15.0 mph 25.3 mph N/A   Overcast
10:56 PM 35.6 °F 25.9 °F 35.6 °F 100% 29.01 in 8.0 mi NE 16.1 mph 26.5 mph N/A   Overcast
11:16 PM 35.6 °F 27.5 °F 35.6 °F 100% 28.99 in 6.0 mi NE 11.5 mph 23.0 mph N/A   Overcast
11:36 PM 35.6 °F 27.5 °F 35.6 °F 100% 28.98 in 8.0 mi NE 11.5 mph 26.5 mph N/A   Overcast
11:56 PM 35.6 °F 26.6 °F 35.6 °F 100% 28.94 in 9.0 mi NE 13.8 mph 23.0 mph N/A   Overcast